Location: Lake Lucerne
(45.5315°N, 88.8489°W)
Time: 08:24:48

ISS - Pass Details

Date: 28 February 2018
Orbit: 403 x 406 km, 51.6° (Epoch: 22 March)

Event Time Altitude Azimuth Distance (km) Brightness Sun altitude
Exits shadow 05:20:36 - 207° (SSW) 1,505 -1.2 -13.9°
Reaches altitude 10° 05:20:44 10° 206° (SSW) 1,459 -1.3 -13.9°
Maximum altitude 05:23:41 32° 141° (SE) 722 -2.2 -13.4°
Drops below altitude 10° 05:26:40 10° 76° (ENE) 1,465 0.4 -12.8°
Sets 05:28:52 0° 66° (ENE) 2,328 1.4 -12.5°
